Voltar ao catálogo

SUCHAI-4

AtivoMilitarSSO
NORAD 69936·PAYLOAD·🇺🇸 United States
Este nome de satélite ainda não foi confirmado por fontes oficiais.

Lançado Jul 7, 2026 de Vandenberg Space Force Base

Loading…

Próximas Passagens (próximas 24 horas)

TLE

AtualizadoSource: Space-Track

Época: Sep 14, 2026, 11:05 UTC

1 69936U 26156BV  26257.46188657  .00001420  00000-0  14332-3 0  9993
2 69936  97.7401 156.7925 0008408 288.0459  71.9844 14.92618694 10312

Acompanhe SUCHAI-4 em tempo real com AllMySat

Download on the App Store